Location: Bishop�s Knoyle
(51.0728°N, 2.1714°W)
Time: 10:01:42
(UTC+00:00)

ATLAS CENTAUR R/B - Pass Details

Date: 23 January 2021
Orbit: 471 x 674 km, 64.6° (Epoch: 24 February)

Event Time Altitude Azimuth Distance (km) Brightness Sun altitude
Rises 05:54:43 0° 194° (SSW) 2,527 4.6 -19.0°
Reaches altitude 10° 05:57:00 10° 183° (S) 1,640 3.8 -18.6°
Maximum altitude 06:00:13 30° 121° (ESE) 875 3.0 -18.1°
Drops below altitude 10° 06:03:25 10° 59° (ENE) 1,644 4.5 -17.6°
Sets 06:05:43 0° 48° (NE) 2,536 5.3 -17.2°
